Total_Precipitation_Accumulation
2.06 2.13 2.04 2.03 1.97 1.91 1.79 1.62 1.57 1.49 1.39 1.31 1.23 1.18 1.18 1.23 1.24 1.27 1.24 1.19 1.14 1.11 1.08 1.08 1.10 1.16 1.24 1.25 1.28 1.43 1.64 1.82 1.84 1.50 1.37 1.45 1.59 1.55 1.55 1.49 1.39 1.34 1.37
1.69 1.85 1.89 1.80 1.64 1.57 1.49 1.43 1.34 1.26 1.21 1.17 1.07 1.01 0.98 0.98 0.98 1.00 1.02 1.02 1.02 0.96 0.99 1.05 1.05 1.08 1.13 1.20 1.26 1.34 1.48 1.70 1.86 1.74 1.52 1.53 1.59 1.60 1.64 1.62 1.41 1.26 1.31
1.46 1.52 1.54 1.48 1.39 1.32 1.28 1.30 1.21 1.14 1.09 1.03 0.99 0.99 0.92 0.90 0.86 0.85 0.88 0.93 0.94 0.89 0.93 0.99 1.05 1.16 1.15 1.17 1.24 1.29 1.40 1.53 1.81 1.85 1.66 1.63 1.69 1.74 1.86 1.72 1.54 1.50 1.25
1.25 1.29 1.30 1.31 1.29 1.22 1.14 1.12 1.10 1.08 1.06 1.01 0.99 0.93 0.88 0.84 0.83 0.82 0.83 0.86 0.87 0.87 0.92 0.98 1.02 1.15 1.23 1.26 1.26 1.30 1.36 1.50 1.69 1.85 1.79 1.75 1.80 1.88 1.92 1.86 1.73 1.58 1.42
1.19 1.15 1.19 1.25 1.26 1.21 1.20 1.17 1.11 1.04 0.99 0.98 0.97 0.92 0.87 0.82 0.78 0.77 0.77 0.79 0.87 0.89 0.87 0.89 0.92 1.04 1.14 1.13 1.06 1.10 1.27 1.50 1.59 1.77 1.81 1.78 1.77 1.90 1.87 1.67 1.61 1.54 1.38
1.22 1.18 1.19 1.20 1.16 1.15 1.15 1.12 1.08 1.02 0.99 0.97 0.96 0.92 0.85 0.72 0.74 0.75 0.73 0.77 0.82 0.85 0.84 0.83 0.80 0.80 0.80 0.82 0.87 0.93 1.08 1.35 1.67 1.88 1.83 1.77 1.65 1.65 1.71 1.65 1.65 1.66 1.58
1.34 1.23 1.20 1.18 1.09 1.05 0.98 0.97 1.02 1.01 0.95 0.90 0.87 0.87 0.83 0.76 0.72 0.66 0.68 0.75 0.84 0.89 0.91 0.89 0.71 0.62 0.73 0.79 0.85 0.89 1.02 1.20 1.50 1.85 1.93 1.71 1.66 1.63 1.70 1.69 1.74 1.79 1.66
1.29 1.18 1.13 1.11 1.05 1.03 1.02 1.01 1.00 0.97 0.92 0.92 0.89 0.88 0.87 0.75 0.69 0.63 0.65 0.72 0.82 0.84 0.85 0.87 0.88 0.82 0.78 0.87 0.94 1.01 1.13 1.25 1.37 1.49 1.78 1.60 1.41 1.43 1.53 1.59 1.69 1.69 1.59
1.28 1.11 1.01 0.97 0.91 0.91 0.96 0.97 0.94 0.92 0.87 0.82 0.82 0.85 0.89 0.85 0.74 0.66 0.63 0.69 0.77 0.78 0.75 0.74 0.74 0.77 0.85 1.02 1.15 1.34 1.45 1.55 1.46 1.62 1.79 1.74 1.60 1.54 1.43 1.50 1.73 1.77 1.67
1.04 0.93 0.89 0.90 0.83 0.83 0.85 0.85 0.83 0.84 0.85 0.79 0.77 0.80 0.84 0.80 0.67 0.57 0.56 0.62 0.73 0.76 0.79 0.77 0.70 0.66 0.78 0.96 1.21 1.50 1.65 1.71 1.58 1.69 1.96 2.01 1.84 1.84 1.81 1.70 1.82 1.86 1.78
0.88 0.80 0.83 0.84 0.77 0.74 0.76 0.77 0.77 0.74 0.77 0.78 0.74 0.75 0.71 0.61 0.54 0.48 0.48 0.51 0.62 0.72 0.78 0.84 0.81 0.73 0.78 1.00 1.22 1.42 1.58 1.61 1.66 1.75 1.78 1.80 1.88 1.93 1.91 1.84 1.80 1.79 1.75
0.81 0.78 0.82 0.82 0.63 0.55 0.65 0.67 0.68 0.74 0.74 0.76 0.75 0.69 0.58 0.54 0.47 0.44 0.45 0.45 0.48 0.63 0.81 0.84 0.84 0.79 0.83 1.02 1.19 1.45 1.67 1.75 1.73 1.77 1.63 1.53 1.49 1.52 1.60 1.58 1.54 1.51 1.47
0.78 0.79 0.78 0.74 0.65 0.58 0.61 0.63 0.67 0.72 0.69 0.65 0.67 0.65 0.54 0.52 0.47 0.42 0.44 0.48 0.51 0.57 0.72 0.80 0.81 0.81 0.94 1.24 1.40 1.57 1.74 1.85 1.89 1.76 1.56 1.43 1.30 1.25 1.25 1.33 1.37 1.36 1.28
0.80 0.79 0.77 0.73 0.65 0.59 0.60 0.56 0.58 0.61 0.60 0.57 0.58 0.59 0.56 0.53 0.47 0.44 0.49 0.55 0.59 0.61 0.71 0.86 0.94 0.97 1.13 1.43 1.63 1.82 1.86 1.78 1.63 1.56 1.47 1.39 1.24 1.18 1.21 1.15 1.18 1.22 1.24
0.76 0.71 0.69 0.62 0.59 0.57 0.52 0.40 0.39 0.40 0.40 0.45 0.51 0.50 0.48 0.46 0.41 0.44 0.47 0.49 0.55 0.58 0.66 0.85 1.03 1.14 1.31 1.51 1.68 1.74 1.72 1.62 1.51 1.33 1.27 1.31 1.29 1.20 1.18 1.09 1.07 1.10 1.17
0.70 0.67 0.61 0.55 0.53 0.49 0.51 0.42 0.33 0.30 0.29 0.27 0.30 0.30 0.33 0.39 0.40 0.42 0.43 0.46 0.50 0.57 0.65 0.86 1.02 1.10 1.26 1.47 1.60 1.57 1.47 1.39 1.29 1.19 1.14 1.12 1.11 1.07 1.06 1.03 0.95 0.95 1.03
0.60 0.59 0.56 0.52 0.49 0.46 0.49 0.52 0.48 0.34 0.26 0.26 0.27 0.29 0.32 0.35 0.34 0.34 0.37 0.42 0.45 0.52 0.63 0.84 0.98 1.10 1.28 1.41 1.42 1.39 1.35 1.26 1.17 1.14 1.11 1.03 0.97 0.94 0.92 0.88 0.87 0.90 0.86
0.43 0.42 0.44 0.48 0.47 0.45 0.42 0.42 0.42 0.42 0.41 0.37 0.32 0.30 0.28 0.28 0.27 0.27 0.32 0.36 0.42 0.47 0.62 0.81 0.96 1.06 1.16 1.24 1.31 1.34 1.30 1.19 1.10 1.09 1.14 1.10 1.00 0.92 0.85 0.82 0.80 0.76 0.75
0.33 0.37 0.34 0.36 0.40 0.40 0.37 0.38 0.37 0.38 0.40 0.40 0.37 0.32 0.28 0.27 0.28 0.32 0.35 0.39 0.47 0.56 0.65 0.78 0.88 0.97 1.01 1.01 1.08 1.13 1.13 1.11 1.06 1.03 1.02 1.03 0.97 0.88 0.78 0.70 0.67 0.57 0.57
0.24 0.24 0.25 0.26 0.29 0.32 0.31 0.33 0.33 0.32 0.33 0.35 0.35 0.33 0.32 0.37 0.41 0.44 0.43 0.40 0.46 0.55 0.64 0.73 0.81 0.86 0.84 0.81 0.80 0.84 0.89 0.93 0.92 0.89 0.87 0.87 0.85 0.76 0.68 0.63 0.61 0.59 0.59
0.18 0.18 0.21 0.20 0.20 0.21 0.20 0.21 0.24 0.25 0.28 0.32 0.31 0.29 0.37 0.43 0.48 0.49 0.48 0.47 0.49 0.53 0.58 0.62 0.66 0.69 0.67 0.67 0.66 0.68 0.73 0.78 0.79 0.79 0.76 0.74 0.70 0.68 0.60 0.55 0.53 0.50 0.49
0.15 0.16 0.19 0.20 0.17 0.16 0.15 0.16 0.20 0.22 0.23 0.28 0.31 0.33 0.41 0.43 0.48 0.51 0.53 0.53 0.53 0.53 0.52 0.53 0.53 0.53 0.54 0.55 0.54 0.56 0.60 0.62 0.68 0.73 0.74 0.70 0.61 0.57 0.51 0.46 0.47 0.47 0.47
0.15 0.15 0.18 0.21 0.17 0.16 0.16 0.18 0.19 0.20 0.22 0.24 0.27 0.31 0.38 0.46 0.53 0.57 0.57 0.56 0.55 0.53 0.49 0.49 0.51 0.52 0.51 0.48 0.47 0.51 0.54 0.57 0.62 0.70 0.75 0.69 0.59 0.52 0.46 0.43 0.46 0.49 0.48
0.15 0.17 0.19 0.20 0.18 0.16 0.15 0.16 0.18 0.19 0.21 0.24 0.26 0.29 0.34 0.43 0.49 0.56 0.60 0.58 0.57 0.55 0.52 0.50 0.49 0.48 0.45 0.42 0.39 0.37 0.38 0.44 0.53 0.61 0.65 0.64 0.54 0.45 0.40 0.39 0.40 0.42 0.44
0.17 0.16 0.15 0.16 0.16 0.17 0.17 0.16 0.17 0.18 0.19 0.19 0.21 0.23 0.26 0.32 0.38 0.47 0.55 0.60 0.62 0.61 0.57 0.53 0.53 0.50 0.44 0.37 0.31 0.27 0.33 0.41 0.48 0.52 0.56 0.53 0.44 0.39 0.37 0.38 0.38 0.37 0.38
0.16 0.17 0.15 0.13 0.13 0.14 0.16 0.17 0.16 0.17 0.18 0.17 0.17 0.19 0.21 0.24 0.30 0.36 0.43 0.50 0.55 0.60 0.63 0.65 0.62 0.50 0.41 0.35 0.32 0.31 0.33 0.33 0.36 0.40 0.44 0.43 0.36 0.35 0.37 0.37 0.32 0.32 0.35